Flag for United Kingdom Weather past 2 weeks in Greenwich Borough, England, United Kingdom

Now
46 °F

Partly sunny.


Feels Like: 40 °F
Forecast: 45 / 54 °F
Wind: 16 mph from Southwest

Location: Biggin Hill Airport

Current Time: Mar 30, 2015 at 5:33:15 PM

Latest Report: Mar 30, 2015 at 5:20 PM


Visibility: N/A

Pressure: 29.80 "Hg

Humidity: 62%

Dew point: 34 °F

Location of Greenwich BoroughLocation

Historic Weather in Greenwich Borough — Graph

°F

Greenwich Borough temperature yesterday

Maximum temperature yesterday: 54 °F (at 2:20 PM)
Minimum temperature yesterday: 46 °F (at 7:50 AM)
Average temperature yesterday: 50 °F

Past Weeks' High & Low Weather Summary

 TemperatureHumidityPressure
High54 °F (Mar 27, 3:20 PM)100% (Mar 17, 8:50 AM)30.51 "Hg (Mar 17, 8:50 AM)
Low32 °F (Mar 25, 6:50 AM)35% (Mar 30, 1:50 PM)29.36 "Hg (Mar 29, 2:20 PM)
Average44 °F73%30.06 "Hg
* Reported Mar 15 3:20 PM — Mar 30 4:20 PM, Greenwich Borough, Weather by CustomWeather, © 2015

Note: Actual official high and low records may vary slightly from our data, if they occured in-between our weather recording intervals... More about our weather records

Advertising

Greenwich Borough weather history for previous 24 hours

 ConditionsComfort  
Time TempWeatherWind HumidityBarometerVisibility
4:20 PM
Mon, Mar 30
48 °FPassing clouds.13 mph46%29.83 "HgN/A
3:50 PM50 °FPassing clouds.15 mph47%29.83 "HgN/A
3:20 PM50 °FPassing clouds.13 mph43%29.86 "HgN/A
2:50 PM48 °FPassing clouds.10 mph40%29.86 "HgN/A
2:20 PM48 °FPassing clouds.12 mph40%29.86 "HgN/A
1:50 PM50 °FPassing clouds.12 mph35%29.86 "HgN/A
1:20 PM48 °FPassing clouds.13 mph40%29.89 "HgN/A
12:50 PM48 °FPassing clouds.10 mph46%29.89 "HgN/A
12:20 PM48 °FPassing clouds.13 mph50%29.89 "HgN/A
11:50 AM48 °FPassing clouds.13 mph50%29.89 "HgN/A
11:20 AM46 °FPassing clouds.13 mph53%29.86 "HgN/A
10:50 AM46 °FPassing clouds.14 mph53%29.86 "HgN/A
10:20 AM46 °FPassing clouds.15 mph53%29.86 "HgN/A
9:50 AM45 °FScattered clouds.12 mph61%29.83 "HgN/A
9:20 AM45 °FScattered clouds.13 mph66%29.80 "HgN/A
8:50 AM43 °FPassing clouds.12 mph66%29.80 "HgN/A
8:20 AM43 °FPassing clouds.12 mph66%29.80 "HgN/A
7:50 AM41 °FScattered clouds.12 mph70%29.80 "HgN/A
7:20 AM41 °FClear.10 mph70%29.74 "Hg10 mi
7:20 PM
Sun, Mar 29
46 °FScattered showers. Partly sunny.8 mph87%29.47 "HgN/A
6:50 PM46 °FRain showers. Broken clouds.16 mph87%29.47 "Hg3 mi
6:20 PM46 °FRain showers. Broken clouds.20 mph82%29.47 "HgN/A
5:50 PM48 °FSprinkles. Broken clouds.18 mph82%29.45 "HgN/A
5:20 PM48 °FSleet. Broken clouds.18 mph82%29.42 "HgN/A
Weather by CustomWeather, © 2015

See weather overviewHow to use our weather pages